Tracking 25378 objects as of 22-Jan-2022
HD Live streaming from Space Station
objects crossing your sky now

STARLINK-2443

Track STARLINK-2443 now!
10-day predictions
STARLINK-2443 is classified as:


NORAD ID: 48107
Int'l Code: 2021-027R
Perigee: 553.5 km
Apogee: 555.3 km
Inclination: 53.1 °
Period: 95.6 minutes
Semi major axis: 6925 km
RCS: Unknown
Launch date: April 7, 2021
Source: United States (US)
Launch site: AIR FORCE EASTERN TEST RANGE (AFETR)
aabbcc
Your satellite tracking list
Your tracking list is empty




NASA's NSSDC Master Catalog

Two Line Element Set (TLE):
1 48107U 21027R   22021.87335968 -.00000070  00000-0  14227-4 0  9996
2 48107  53.0554  80.4610 0001293  87.4370 272.6767 15.06391695 45435
Source of the keplerian elements: AFSPC